Presque Isle, ME

9:49 AM EDT on October 19, 2017 (GMT -0400)
Northern Maine Regional At Presque Isle

Weather History for KPQI - January, 2013

Change the Weather History Date:

Wednesday, January 30, 2013

  Actual Average Record
Temperature  
Mean Temperature 34 °F -  
Max Temperature 46 °F 22 °F 46 °F (2013)
Min Temperature 21 °F 4 °F -27 °F (1997)
Degree Days  
Heating Degree Days 32    
Moisture  
Dew Point 31 °F    
Average Humidity 81    
Maximum Humidity 93    
Minimum Humidity 59    
Precipitation  
Precipitation 0.02 in - - ()
Sea Level Pressure  
Sea Level Pressure 29.57 in    
Wind  
Wind Speed 14 mph (South)    
Max Wind Speed 25 mph    
Max Gust Speed 38 mph    
Visibility 10 miles    
Events      
Averages and records for this station are not official NWS values.
T = Trace of Precipitation, MM = Missing Value Source: NWS Daily Summary

Daily Weather History Graph

Daily Weather History Graph

Search for Another Location

Airport or City:

Trip Planner

Search our weather history database for the weather conditions in past years. The results will help you decide how hot, cold, wet, or windy it might be!

Date:

Astronomy

Jan. 30, 2013 Rise Set
Actual Time 6:58 AM EST 4:33 PM EST
Civil Twilight 6:25 AM EST 5:05 PM EST
Nautical Twilight 5:49 AM EST 5:42 PM EST
Astronomical Twilight 5:13 AM EST 6:17 PM EST
Moon 8:46 PM EST (1/30) 8:07 AM EST (1/30)
Length of Visible Light 10h 39m
Length of Day
9h 34m
Waning Gibbous, 88% of the Moon is Illuminated
Jan 30
Waning Gibbous
Feb 3
Last Quarter
Feb 10
New
Feb 17
First Quarter
Feb 25
Full

Hourly Weather History & Observations

Time (EST) Temp. Windchill Dew Point Humidity Pressure Visibility Wind Dir Wind Speed Gust Speed Precip Events Conditions
12:15 AM 21.2 °F 11.7 °F 10.4 °F 63% 30.03 in 10.0 mi SSE 8.1 mph - N/A   Clear
12:35 AM 21.2 °F 9.5 °F 10.4 °F 63% 30.01 in 10.0 mi SSE 11.5 mph 17.3 mph N/A   Scattered Clouds
12:55 AM 23.0 °F 11.1 °F 10.4 °F 59% 30.02 in 10.0 mi SSE 12.7 mph - N/A   Mostly Cloudy
1:15 AM 21.2 °F 8.3 °F 10.4 °F 63% 30.00 in 10.0 mi SE 13.8 mph 18.4 mph N/A   Overcast
1:35 AM 21.2 °F 10.1 °F 10.4 °F 63% 29.99 in 10.0 mi SSE 10.4 mph 16.1 mph N/A   Overcast
1:55 AM 21.2 °F 7.8 °F 10.4 °F 63% 29.99 in 10.0 mi SE 15.0 mph - N/A   Overcast
2:15 AM 21.2 °F 10.9 °F 10.4 °F 63% 29.98 in 10.0 mi SE 9.2 mph - N/A   Overcast
2:35 AM 23.0 °F 12.4 °F 10.4 °F 59% 29.96 in 10.0 mi SSE 10.4 mph - N/A   Overcast
2:55 AM 23.0 °F 11.7 °F 12.2 °F 63% 29.94 in 10.0 mi SSE 11.5 mph - N/A   Overcast
3:15 AM 23.0 °F 12.4 °F 15.8 °F 74% 29.93 in 10.0 mi SSE 10.4 mph 16.1 mph N/A   Overcast
3:35 AM 24.8 °F 14.6 °F 14.0 °F 64% 29.92 in 10.0 mi SSE 10.4 mph - N/A   Overcast
3:55 AM 24.8 °F 13.4 °F 14.0 °F 64% 29.90 in 10.0 mi SSE 12.7 mph 16.1 mph N/A   Overcast
4:15 AM 24.8 °F 14.0 °F 15.8 °F 69% 29.88 in 10.0 mi SSE 11.5 mph 19.6 mph N/A   Overcast
4:35 AM 24.8 °F 12.9 °F 17.6 °F 74% 29.86 in 10.0 mi SSE 13.8 mph 18.4 mph N/A   Overcast
4:55 AM 24.8 °F 12.9 °F 17.6 °F 74% 29.84 in 10.0 mi SSE 13.8 mph - N/A   Overcast
5:15 AM 24.8 °F 14.6 °F 21.2 °F 86% 29.84 in 10.0 mi SSE 10.4 mph - N/A   Overcast
5:35 AM 26.6 °F 17.5 °F 21.2 °F 80% 29.83 in 10.0 mi SSE 9.2 mph - N/A   Overcast
5:55 AM 26.6 °F 17.5 °F 23.0 °F 86% 29.83 in 10.0 mi SSE 9.2 mph - N/A   Overcast
6:15 AM 28.4 °F 17.5 °F 24.8 °F 86% 29.80 in 10.0 mi SSE 13.8 mph - N/A   Overcast
6:35 AM 28.4 °F 17.0 °F 26.6 °F 93% 29.78 in 10.0 mi SSE 15.0 mph - N/A   Overcast
6:55 AM 30.2 °F 19.8 °F 26.6 °F 86% 29.76 in 10.0 mi SSE 13.8 mph - N/A   Overcast
7:15 AM 30.2 °F 20.8 °F 26.6 °F 86% 29.76 in 10.0 mi SSE 11.5 mph - N/A   Overcast
7:35 AM 32.0 °F 21.6 °F 28.4 °F 87% 29.75 in 10.0 mi South 15.0 mph - N/A   Overcast
7:55 AM 33.8 °F 23.9 °F 30.2 °F 87% 29.73 in 10.0 mi South 15.0 mph 26.5 mph 0.01 in   Overcast
8:15 AM 35.6 °F 25.9 °F 30.2 °F 81% 29.72 in 10.0 mi South 16.1 mph 25.3 mph N/A   Overcast
8:35 AM 35.6 °F 25.2 °F 30.2 °F 81% 29.70 in 10.0 mi South 18.4 mph 26.5 mph N/A   Overcast
8:55 AM 35.6 °F 24.2 °F 32.0 °F 87% 29.68 in 10.0 mi South 21.9 mph 31.1 mph N/A   Overcast
9:15 AM 37.4 °F 26.1 °F 33.8 °F 87% 29.67 in 6.0 mi South 24.2 mph 35.7 mph N/A   Overcast
9:35 AM 37.4 °F 26.6 °F 33.8 °F 87% 29.65 in 9.0 mi South 21.9 mph 33.4 mph 0.01 in   Overcast
9:55 AM 37.4 °F 25.9 °F 32.0 °F 81% 29.63 in 10.0 mi South 25.3 mph 31.1 mph 0.01 in   Overcast
10:15 AM 37.4 °F 26.6 °F 33.8 °F 87% 29.63 in 10.0 mi South 21.9 mph 32.2 mph N/A   Overcast
10:35 AM 37.4 °F 26.4 °F 33.8 °F 87% 29.61 in 10.0 mi South 23.0 mph 34.5 mph N/A   Overcast
10:55 AM 37.4 °F 25.9 °F 33.8 °F 87% 29.59 in 10.0 mi South 25.3 mph 33.4 mph N/A   Overcast
11:15 AM 39.2 °F 28.5 °F 33.8 °F 81% 29.57 in 10.0 mi South 24.2 mph 38.0 mph N/A   Overcast
11:35 AM 39.2 °F 29.0 °F 33.8 °F 81% 29.56 in 10.0 mi South 21.9 mph 33.4 mph N/A   Overcast
11:55 AM 39.2 °F 29.8 °F 33.8 °F 81% 29.54 in 10.0 mi South 18.4 mph 34.5 mph N/A   Overcast
12:15 PM 39.2 °F 29.0 °F 35.6 °F 87% 29.53 in 10.0 mi South 21.9 mph 34.5 mph N/A   Overcast
12:35 PM 39.2 °F 28.7 °F 35.6 °F 87% 29.52 in 10.0 mi South 23.0 mph 31.1 mph N/A   Overcast
12:55 PM 39.2 °F 28.7 °F 35.6 °F 87% 29.49 in 10.0 mi South 23.0 mph 31.1 mph N/A   Overcast
1:15 PM 39.2 °F 28.7 °F 35.6 °F 87% 29.47 in 10.0 mi South 23.0 mph 31.1 mph N/A   Overcast
1:35 PM 41.0 °F 31.4 °F 35.6 °F 81% 29.45 in 10.0 mi South 21.9 mph 28.8 mph N/A   Overcast
1:55 PM 41.0 °F 31.6 °F 35.6 °F 81% 29.44 in 10.0 mi South 20.7 mph 32.2 mph N/A   Overcast
2:15 PM 42.8 °F 34.0 °F 35.6 °F 76% 29.43 in 10.0 mi South 20.7 mph 32.2 mph N/A   Overcast
2:35 PM 42.8 °F 34.3 °F 35.6 °F 76% 29.43 in 10.0 mi South 19.6 mph 28.8 mph N/A   Overcast
2:55 PM 42.8 °F 34.3 °F 37.4 °F 81% 29.41 in 10.0 mi South 19.6 mph 28.8 mph N/A   Overcast
3:15 PM 42.8 °F 34.3 °F 37.4 °F 81% 29.40 in 10.0 mi South 19.6 mph 31.1 mph N/A   Overcast
3:35 PM 42.8 °F 34.3 °F 37.4 °F 81% 29.39 in 10.0 mi South 19.6 mph 27.6 mph N/A   Overcast
3:55 PM 44.6 °F 37.2 °F 39.2 °F 81% 29.37 in 10.0 mi South 17.3 mph 27.6 mph N/A   Overcast
4:15 PM 44.6 °F 37.2 °F 39.2 °F 81% 29.36 in 10.0 mi South 17.3 mph 26.5 mph N/A   Overcast
4:35 PM 44.6 °F 37.4 °F 39.2 °F 81% 29.35 in 10.0 mi South 16.1 mph 26.5 mph N/A   Overcast
4:55 PM 44.6 °F 36.4 °F 39.2 °F 81% 29.34 in 10.0 mi South 20.7 mph 27.6 mph N/A   Overcast
5:15 PM 44.6 °F 36.9 °F 41.0 °F 87% 29.33 in 10.0 mi South 18.4 mph 26.5 mph N/A   Overcast
5:35 PM 46.4 °F 38.7 °F 41.0 °F 81% 29.31 in 10.0 mi South 20.7 mph 26.5 mph N/A   Overcast
5:55 PM 46.4 °F 39.2 °F 42.8 °F 87% 29.30 in 10.0 mi South 18.4 mph 29.9 mph N/A   Overcast
6:15 PM 46.4 °F 39.5 °F 42.8 °F 87% 29.30 in 10.0 mi South 17.3 mph 27.6 mph N/A   Overcast
6:35 PM 46.4 °F 38.3 °F 42.8 °F 87% 29.30 in 10.0 mi South 23.0 mph 31.1 mph N/A   Overcast
6:55 PM 46.4 °F 40.1 °F 42.8 °F 87% 29.32 in 10.0 mi South 15.0 mph 20.7 mph N/A   Overcast
7:15 PM 46.4 °F 39.8 °F 42.8 °F 87% 29.32 in 10.0 mi South 16.1 mph 23.0 mph N/A   Overcast
7:35 PM 46.4 °F 39.2 °F 42.8 °F 87% 29.31 in 10.0 mi South 18.4 mph 24.2 mph N/A   Overcast
7:55 PM 46.4 °F 39.0 °F 42.8 °F 87% 29.29 in 10.0 mi South 19.6 mph 24.2 mph N/A   Overcast
8:15 PM 46.4 °F 39.5 °F 42.8 °F 87% 29.28 in 10.0 mi South 17.3 mph 25.3 mph N/A   Overcast
8:35 PM 46.4 °F 40.7 °F 42.8 °F 87% 29.28 in 10.0 mi South 12.7 mph 19.6 mph N/A   Overcast
8:55 PM 46.4 °F 41.5 °F 42.8 °F 87% 29.29 in 10.0 mi South 10.4 mph - N/A   Overcast
9:15 PM 46.4 °F 41.9 °F 42.8 °F 87% 29.30 in 10.0 mi South 9.2 mph - N/A   Overcast
9:35 PM 46.4 °F 41.9 °F 42.8 °F 87% 29.30 in 10.0 mi South 9.2 mph - N/A   Overcast
9:55 PM 46.4 °F 41.9 °F 42.8 °F 87% 29.29 in 10.0 mi South 9.2 mph - N/A   Overcast
10:15 PM 44.6 °F 39.7 °F 42.8 °F 93% 29.29 in 10.0 mi South 9.2 mph - N/A   Overcast
10:35 PM 44.6 °F 39.7 °F 42.8 °F 93% 29.28 in 10.0 mi SSE 9.2 mph - N/A   Overcast
10:55 PM 46.4 °F 41.9 °F 42.8 °F 87% 29.26 in 10.0 mi SSE 9.2 mph - N/A   Overcast
11:15 PM 46.4 °F 41.9 °F 42.8 °F 87% 29.25 in 10.0 mi SSE 9.2 mph - N/A   Overcast
11:35 PM 46.4 °F 41.9 °F 42.8 °F 87% 29.25 in 10.0 mi South 9.2 mph - N/A   Overcast
11:55 PM 46.4 °F 45.2 °F 42.8 °F 87% 29.25 in 10.0 mi SSE 3.5 mph - N/A   Overcast